Location: Songkhla
(7.2000°N, 100.6000°E)
Time: 08:09:42
(UTC+07:00)

ITUPSAT 1 - Visible Passes

Search period start: 26 July 2021 00:00
Search period end: 05 August 2021 00:00
Orbit: 701 x 712 km, 98.6° (Epoch: 25 July)

Date Brightness Start Highest point End Pass type
(mag) Time Alt. Az. Time Alt. Az. Time Alt. Az.
26 Jul ? 19:47:02 10° N 19:51:33 42° WNW 19:56:05 10° SSW visible
27 Jul ? 18:53:37 10° NE 18:58:01 37° ESE 19:02:25 10° SSE visible
27 Jul ? 20:33:52 10° NW 20:35:27 12° WNW 20:37:02 10° W visible
28 Jul ? 19:37:19 10° N 19:42:01 58° WNW 19:46:44 10° SSW visible
29 Jul ? 20:23:06 10° NW 20:25:57 16° WNW 20:28:47 10° WSW visible
30 Jul ? 19:27:42 10° N 19:32:30 79° WNW 19:37:17 10° SSW visible
31 Jul ? 20:12:52 10° NNW 20:16:26 21° WNW 20:20:01 10° SW visible
01 Aug ? 19:18:09 10° NNE 19:22:57 78° ESE 19:27:44 10° S visible
02 Aug ? 20:02:51 10° NNW 20:06:55 28° WNW 20:10:59 10° SW visible
03 Aug ? 19:08:42 10° NNE 19:13:24 57° ESE 19:18:06 10° S visible
04 Aug ? 19:52:59 10° N 19:57:23 37° WNW 20:01:48 10° SW visible
